Regional Weather Roundup
Issued by NWS

Home | Current Version | Previous Version | Text Only | Print | Product List | Glossary Off
Versions: 1 2 3 4 5 6 7 8 9 10 11 12 13 14 15 16 17 18 19 20 21 22 23 24 25 26 27 28 29 30 31 32 33 34 35 36 37 38 39 40 41 42 43 44 45 46 47 48 49 50

000
ASUS45 KCYS 191410
RWRWY

WYOMING REGIONAL WEATHER ROUNDUP
NATIONAL WEATHER SERVICE CHEYENNE WY
800 AM MDT FRI SEP 19 2014

NOTE:  "FAIR" INDICATES FEW OR NO CLOUDS BELOW 12,000 FEET
WITH NO SIGNIFICANT WEATHER AND/OR OBSTRUCTIONS TO VISIBILITY.

WYZ001-191500-
YELLOWSTONE NATIONAL PARK

CITY           SKY/WX    TMP DP  RH WIND       PRES   REMARKS
LK YELLOWSTONE   N/A     37  36  96 CALM      30.20R
W YELLOWSTONE  NOT AVBL

$$
WYZ002>013-054>058-071-098>099-191500-
NORTHERN WYOMING

CITY           SKY/WX    TMP DP  RH WIND       PRES   REMARKS
JACKSON        CLOUDY    43  43 100 CALM      30.15R
CODY             N/A    N/A N/A N/A MISG        N/A
GREYBULL       MOSUNNY   56  55  97 SE3       29.93R
WORLAND        PTSUNNY   54  52  93 SE6       29.94R
SHERIDAN       PTSUNNY   56  51  84 S7        29.89R
BUFFALO        PTSUNNY   61  49  64 W8        29.95R
GILLETTE       CLOUDY    63  51  65 SW16G23   29.90R
HULETT         PTSUNNY   63  52  67 MISG      29.91
NEWCASTLE      FAIR      61  48  63 N7        29.91

$$
WYZ014>020-022>026-101>103-191500-
CENTRAL WYOMING

CITY           SKY/WX    TMP DP  RH WIND       PRES   REMARKS
BIG PINEY      PTCLDY    43  41  93 CALM      30.18R
PINEDALE       MOSUNNY   43  43 100 W6        30.19R
DUBOIS         FAIR      50  41  71 NW13      30.12R
LANDER         CLOUDY    58  43  57 E6        30.00R
RIVERTON       CLOUDY    59  46  62 NW12      30.01R
CASPER         CLOUDY    60  49  66 W10       29.97R
DOUGLAS        CLOUDY    59  48  67 CALM      29.95R

$$
WYZ021-027>030-104>119-191500-
SOUTHERN WYOMING

CITY           SKY/WX    TMP DP  RH WIND       PRES   REMARKS
EVANSTON       MOCLDY    53  49  86 CALM      30.18R
KEMMERER       MOSUNNY   46  46 100 NW9       30.20R
FORT BRIDGER   PTSUNNY   55  51  87 S10       30.19R
ROCK SPRINGS   PTSUNNY   54  48  80 SE7       30.13S
DIXON          FAIR      50  41  71 CALM      30.20R
RAWLINS        LGT RAIN  55  44  66 SW10      30.15R
SARATOGA       FAIR      55  43  62 S10       30.18S
LARAMIE        MOSUNNY   55  39  54 E6        30.17R
CHEYENNE       MOSUNNY   62  39  42 NW9G20    30.07R
TORRINGTON     MOSUNNY   58  50  75 W6        29.93R
PINE BLUFFS    FAIR      54  46  76 CALM      30.02R

$$


USA.gov is the U.S. government's official web portal to all federal, state and local government web resources and services.